Погода в Аркадаке

Россия / Саратовская область     51°56′19″N   43°29′59″E
темп.,
°C
ветер,
м/с
пор.,
м/с
влажн.,
%
обл.,
%
осадки,
мм/ч
давл.,
гПа
погр.,
м
5 марта, пт
пт501:000з41093100 0.0 1003612
04:000зюз51095100 0.3 1002451
07:00+1зюз71197100 0.1 1002642
10:00−1зсз61194100 0.4 1004642
13:00−1сз5787100 0.0 1007726
16:00−1сз468596 0.1 1010763
19:00−6сз239012 0.0 101321
22:00−8зсз229023 0.0 101521
6 марта, сб
сб601:00−9сз228877 0.0 101621
04:00−10ссз128974 0.0 101721
07:00−9св1290100 0.0 101621
10:00−7всв2291100 0.0 1017102
13:00−5всв2387100 0.0 1016295
16:00−4всв2388100 0.0 1014377
19:00−7всв2293100 0.0 101421
22:00−11ссв229266 0.0 101521
7 марта, вс
вс701:00−12ссз119163 0.0 101521
04:00−13зсз229359 0.0 101620
07:00−11з349695 0.1 101789
10:00−10зюз599377 0.1 1016309
13:00−6зюз7128456 0.0 1014811
16:00−4юз8138078 0.0 10111111
19:00−4юз81680100 0.0 10071030
22:00−3юз101980100 0.3 10041081
8 марта, пн
пн801:00−5зсз71573100 0.8 1004692
04:00−9зюз5108377 0.8 1006180
07:00−8юз51085100 0.0 1005263
10:00−5юз71388100 0.0 1004547
13:00−3зюз61095100 0.4 1002801
16:00−2з91575100 0.8 10021555
19:00−8зсз7167967 0.1 1006576
22:00−11з5138933 0.1 1010373
9 марта, вт
вт901:00−12з511910 0.0 1011232
04:00−14з36930 0.0 101297
07:00−15зюз33940 0.0 101437
10:00−12зюз24936 0.0 1014147
13:00−9з2286100 0.0 1014344
16:00−8сз2386100 0.0 1014495
19:00−12ссз239498 0.0 101422
22:00−14ссз469472 0.0 1016126